Location: 5810 Zion Rd, Cleves, OH 45002, USA
(39.1922°N, 84.7113°W)
Time: 05:48:14
(UTC-05:00)

KAITUO 1B - Visible Passes

Search period start: 29 January 2020 00:00
Search period end: 08 February 2020 00:00
Orbit: 494 x 517 km, 97.4° (Epoch: 29 January)

Date Brightness Start Highest point End Pass type
(mag) Time Alt. Az. Time Alt. Az. Time Alt. Az.
29 Jan ? 06:45:19 10° NNE 06:48:53 51° E 06:52:27 10° S visible
29 Jan ? 18:57:11 10° SSW 19:00:13 24° W 19:03:15 10° NW visible
30 Jan ? 06:27:43 10° NE 06:30:57 29° E 06:34:11 10° SSE visible
30 Jan ? 18:38:47 10° S 18:42:16 40° W 18:45:45 10° NNW visible
31 Jan ? 06:10:26 10° NE 06:12:58 18° E 06:15:30 10° SE visible
31 Jan ? 18:20:41 10° S 18:24:21 73° WSW 18:28:02 10° NNW visible
01 Feb ? 05:54:10 10° E 05:54:56 11° E 05:55:43 10° ESE visible
02 Feb ? 07:07:31 10° N 07:11:10 77° WNW 07:14:50 10° SSW visible
02 Feb ? 19:20:57 10° WSW 19:22:39 13° W 19:24:20 10° WNW visible
03 Feb ? 06:49:39 10° NNE 06:53:16 59° E 06:56:54 10° S visible
03 Feb ? 19:01:47 10° SW 19:04:37 21° W 19:07:28 10° NW visible
04 Feb ? 06:31:59 10° NNE 06:35:21 33° E 06:38:42 10° SSE visible
04 Feb ? 18:43:16 10° SSW 18:46:39 35° W 18:50:02 10° NNW visible
05 Feb ? 06:14:36 10° NE 06:17:22 20° E 06:20:08 10° SE visible
06 Feb ? 05:57:50 10° ENE 05:59:21 12° E 06:00:51 10° ESE visible
07 Feb ? 07:11:52 10° N 07:15:30 67° WNW 07:19:10 10° SSW visible
07 Feb ? 19:25:54 10° WSW 19:27:01 11° W 19:28:08 10° WNW visible
